Location: Filsendorf
(48.3000°N, 15.2833°E)
Time: 23:18:42
(UTC+00:00)

Daily predictions for brighter satellites

Satellite Brightness Start Highest point End
(mag) Time Altitude Azimuth Time Altitude Azimuth Time Altitude Azimuth
Envisat 4.0 15:35:01 10° ESE 15:39:00 24° ENE 15:42:58 10° N
Cosmos 1733 Rocket 3.8 15:36:52 10° N 15:40:48 31° ENE 15:44:43 10° SE
Meteor 1-28 Rocket 4.2 15:38:38 10° N 15:42:16 47° WNW 15:45:53 10° SSW
BREEZE-M DEB (TANK) 3.2 15:37:16 10° WSW 15:44:31 60° S 15:47:40 10° E
Cosmos 2333 4.3 15:39:25 10° SSW 15:45:06 70° ESE 15:50:51 10° NNE
SL-4 R/B 2.2 15:41:51 10° SW 15:45:26 53° SSE 15:49:19 10° ENE
NOAA 6 4.3 15:41:47 10° S 15:46:55 76° WSW 15:52:04 10° NNW
CZ-4B R/B 3.5 15:41:38 10° S 15:46:57 75° WSW 15:52:24 10° NNW
FENGYUN 3A 4.3 15:42:49 10° S 15:48:12 62° WSW 15:53:36 10° NNW
Cosmos 1869 Rocket 3.9 15:44:23 10° NNW 15:48:48 74° W 15:53:13 10° S
BREEZE-M R/B 3.4 15:41:30 10° WSW 15:48:49 88° NNW 15:52:23 10° ENE
Cosmos 2322 3.8 15:44:49 10° SSW 15:50:32 87° ESE 15:56:16 10° NNE
ISS -3.8 15:50:27 10° WNW 15:53:49 77° NNE 15:57:11 10° ESE
ATLAS 3B R/B 3.3 15:48:12 10° NW 15:54:50 64° WSW 16:01:37 10° SSE
Cosmos 1782 3.0 15:51:24 10° SSW 15:55:23 75° W 15:59:24 10° N
USA 267 3.5 15:49:27 10° SE 15:56:01 75° SW 16:02:35 10° WNW
Meteor 2-6 Rocket 4.2 15:51:48 10° S 15:57:04 59° E 16:02:24 10° NNE
Cosmos 2278 Rocket 2.3 15:52:20 10° NNW 15:57:53 52° NE 16:03:22 10° SE
NOSS 3-4 (A) 3.5 15:52:06 10° SW 15:58:08 85° NW 16:04:38 10° NE
Helios 1A Rocket 3.7 15:54:07 10° S 15:58:10 57° W 16:02:13 10° NNW
NOSS 3-4 (C) 3.5 15:52:12 10° SW 15:58:15 85° NW 16:04:44 10° NE
COSMOS 2455 4.1 15:53:14 10° WSW 15:58:43 36° NW 16:04:15 10° NNE
Cosmos 1346 Rocket 3.2 15:55:52 10° NNW 15:59:49 69° W 16:03:47 10° S
Cosmos 1666 4.1 15:57:21 10° NNE 15:59:54 17° ENE 16:02:26 10° ESE
Cosmos 1315 Rocket 2.9 15:57:45 10° SSW 16:01:44 84° WNW 16:05:48 10° N
COBE Rocket 4.2 15:58:16 10° NNE 16:02:40 40° E 16:07:03 10° SSE
Cosmos 2360 Rocket 3.1 15:59:05 10° SW 16:04:33 48° NW 16:10:04 10° NNE
CZ-4B R/B 3.4 16:01:39 10° N 16:04:45 29° WNW 16:07:48 10° SW
SMAP 3.0 16:00:57 10° SSE 16:05:34 65° ENE 16:10:12 10° N
Cosmos 2369 Rocket 3.9 16:08:57 10° N 16:11:17 12° NNE 16:12:39 12° NE
Cosmos 921 Rocket 4.5 16:08:52 10° NNE 16:11:38 16° NE 16:12:47 15° ENE
Meteor 1-10 Rocket 4.2 16:06:43 10° S 16:12:13 69° E 16:17:48 10° NNE
Cosmos 1980 Rocket 4.5 16:10:06 10° NW 16:12:20 12° NNW 16:14:33 10° N
ALOS 4.2 16:09:40 10° SSW 16:13:53 33° W 16:18:08 10° NNW
SL-16 R/B 3.9 16:11:45 10° ESE 16:14:17 13° E 16:15:05 13° E
Okean O Rocket 3.2 16:11:21 10° SSW 16:15:24 38° W 16:19:29 10° NNW
Cosmos 304 Rocket 4.4 16:13:35 10° NNW 16:18:19 60° WSW 16:23:03 10° S
Cosmos 2333 Rocket 2.2 16:12:46 10° SSW 16:18:30 87° ESE 16:24:20 10° NNE
Cosmos 1862 Rocket 3.7 16:15:11 10° SSE 16:19:22 49° E 16:23:37 10° NNE
Cosmos 2242 Rocket 4.3 16:17:08 10° SSE 16:21:15 34° E 16:25:24 10° NNE
Cosmos 2237 Rocket 2.7 16:20:25 10° S 16:25:42 41° ESE 16:29:56 15° NE
Meteor 1-11 Rocket 3.8 16:19:54 10° N 16:25:55 80° ENE 16:31:53 10° SSE
Cosmos 292 Rocket 4.2 16:23:50 10° N 16:28:26 40° ENE 16:33:01 10° SE
Okean-O 2.6 16:25:17 10° SSE 16:29:40 63° ENE 16:34:04 10° N
Cosmos 2322 Rocket 4.2 16:26:07 10° W 16:30:21 21° NW 16:34:36 10° N
NOAA 12 4.0 16:25:54 10° SSE 16:31:11 71° ENE 16:36:28 10° N
Cosmos 1812 2.6 16:28:15 10° S 16:32:05 70° E 16:35:57 10° NNE
Meteor 1-27 Rocket 3.8 16:26:33 10° S 16:32:12 64° E 16:38:00 10° NNE
Cosmos 1707 Rocket 4.4 16:30:57 10° SSW 16:35:18 52° WNW 16:39:42 10° N
ATLAS 2AS CENTAUR R/B 3.7 16:28:27 10° WSW 16:36:14 52° NW 16:43:22 13° NE
RESURS DK-1 2.4 16:32:37 10° SSW 16:36:45 80° WNW 16:39:58 16° NNE
SL-16 R/B 4.3 16:33:30 10° W 16:37:20 18° NW 16:41:11 10° N
STARLINK-67 3.5 16:35:30 10° W 16:38:07 37° NNW 16:38:49 31° NNE
Exosat Rocket 3.5 16:32:57 10° SSW 16:38:16 71° ESE 16:42:27 15° NNE
BREEZE-M DEB (TANK) 4.3 16:38:38 10° W 16:40:46 21° SW 16:42:34 10° SSE
CORIOLIS 4.4 16:35:36 10° S 16:41:02 76° WSW 16:46:32 10° NNW
Cosmos 2219 Rocket 2.5 16:35:49 10° SW 16:41:24 67° WNW 16:46:57 10° NNE
SeaSat 1 3.9 16:48:20 20° NE 16:48:20 20° NE 16:51:31 10° N
Cosmos 1500 3.9 16:47:23 10° NNW 16:51:06 53° W 16:54:45 10° S
Shenzhou-11 Module 3.4 16:49:22 10° WSW 16:51:43 25° S 16:52:19 23° SSE
Nadezhda 4 Rocket 4.0 16:46:05 10° S 16:52:25 88° E 16:58:47 10° N
Cosmos 1908 Rocket 3.4 16:48:36 10° N 16:53:01 68° E 16:57:22 10° SSE
STARLINK-46 2.5 16:52:40 10° WSW 16:55:18 69° NNW 16:55:18 69° NNW
COSMO-SKYMED 1 2.7 16:53:11 25° NE 16:55:27 51° E 16:59:40 10° S
Cosmos 1980 3.6 16:50:31 10° SSW 16:56:08 73° ESE 16:59:58 21° NNE
Cosmos 1553 Rocket 4.5 16:50:28 10° N 16:56:17 37° ENE 17:02:08 10° SE
Cosmos 1943 Rocket 3.3 16:53:37 10° N 16:57:52 23° NE 16:57:52 23° NE
YAOGAN 6 2.4 16:55:09 10° SSE 16:58:40 73° ENE 17:02:15 10° N
Cosmos 2251 Rocket 3.5 16:53:41 10° SSW 16:59:00 84° WNW 17:03:18 16° NNE
Cosmos 2297 3.8 16:53:48 10° NNW 16:59:22 51° NE 17:03:21 19° SE
Cosmos 1536 3.0 16:56:11 10° NNW 17:00:13 71° W 17:04:12 10° S
H-2A R/B 4.5 16:58:28 10° SSW 17:01:51 33° W 17:05:14 10° NNW
USA 215 3.7 16:59:38 23° NE 17:03:39 54° NNW 17:09:58 10° W
Cosmos 1441 Rocket 3.1 17:00:57 10° N 17:04:45 56° ENE 17:08:28 10° SSE
CSL-04 Rocket 3.6 16:59:40 10° SSE 17:04:50 58° ENE 17:10:03 10° N
YAOGAN 1 2.6 17:00:57 10° SSE 17:05:11 55° ENE 17:09:26 10° N
Cosmos 1263 4.0 17:03:38 10° S 17:06:36 80° SSE 17:06:36 80° SSE
CZ-4 R/B 1.1 17:06:44 10° SSE 17:10:39 79° ENE 17:14:32 10° N
COSMOS 2428 3.7 17:05:54 10° SW 17:11:18 44° NW 17:16:06 13° NNE
Cosmos 2026 Rocket 3.9 17:08:59 10° S 17:14:56 62° E 17:20:55 10° NNE
Lacrosse 5 rocket 1.4 17:11:38 10° WSW 17:15:53 69° NNW 17:16:37 54° NNE
Envisat 3.7 17:12:41 10° S 17:17:40 56° W 17:22:41 10° NNW
Aureole 1 Rocket 3.8 17:15:00 10° S 17:16:23 25° S 17:16:23 25° S
Cosmos 614 Rocket 4.4 17:13:37 10° S 17:17:46 39° ESE 17:17:46 39° ESE
CSL-04 Debris 4.0 17:13:00 10° SSE 17:18:27 76° ENE 17:23:55 10° NNW
Okean 1-7 2.9 17:14:35 10° S 17:18:52 64° E 17:19:11 62° ENE
SKYMED 3 4.5 17:17:36 31° NNE 17:19:39 89° ESE 17:24:00 10° SSW
SL-4 R/B 2.1 17:21:18 10° W 17:25:05 58° N 17:25:06 58° N
Cosmos 1417 Rocket 4.4 17:21:20 10° N 17:27:22 56° ENE 17:33:22 10° SSE
Cosmos 407 Rocket 3.8 17:23:21 10° S 17:27:37 44° SE 17:27:37 44° SE
Genesis I 3.6 17:26:04 10° NW 17:29:11 54° NNW 17:29:11 54° NNW
Cosmos 1867 3.8 17:24:46 10° NNW 17:30:02 49° NE 17:30:02 49° NE
ISS -1.8 17:27:30 10° W 17:30:19 25° SW 17:31:05 23° SSW
Meteor 2-9 Rocket 4.5 17:25:21 10° N 17:30:29 48° NE 17:30:29 48° NE
Cosmos 1666 4.0 17:32:10 10° NNW 17:35:41 39° W 17:39:11 10° SSW
NOSS 3-1 (C) 4.4 17:31:50 10° NW 17:38:28 40° NNE 17:39:18 39° NE
NOAA 11 4.0 17:33:30 10° SSE 17:38:57 84° ENE 17:44:28 10° NNW
Cosmos 1627 Rocket 4.4 17:33:50 10° S 17:39:58 83° W 17:46:08 10° N
Cosmos 2278 Rocket 4.1 17:36:52 10° NW 17:41:41 29° WSW 17:46:28 10° SSW
SKYMED 2 4.2 17:41:52 32° NNW 17:43:36 53° WNW 17:47:49 10° SSW
USA 229 DEB 4.2 17:39:22 10° NW 17:46:06 42° NNE 17:46:22 42° NE
USA 229 4.2 17:39:28 10° NW 17:46:12 42° NNE 17:46:26 42° NE
Cosmos 2344 4.4 17:37:41 10° NW 17:46:24 51° NE 17:49:33 41° ENE
Cosmos 1782 Rocket 4.0 17:43:03 10° NNW 17:47:21 59° W 17:51:36 10° S
Cosmos 921 Rocket 3.5 17:46:07 10° NNW 17:49:40 55° WNW 17:49:40 55° WNW
Cosmos 2369 Rocket 3.4 17:51:29 10° NNW 17:54:28 29° N 17:54:28 29° N
SL-16 R/B 2.1 17:51:46 10° SSW 17:57:01 74° SSE 17:57:01 74° SSE
IRS-1A Rocket 4.5 18:01:08 62° N 18:01:08 62° N 18:06:05 10° NNW
Ariane Rocket 4.4 18:03:29 27° NNW 18:03:29 27° NNW 18:05:46 10° NNW
Cosmos 2333 Rocket 4.2 17:59:08 10° W 18:03:34 22° NW 18:06:46 15° N
Cosmos 2237 Rocket 3.4 18:04:29 10° WSW 18:09:48 39° NW 18:11:47 30° N
SeaSat 1 4.3 18:28:08 23° NNW 18:28:08 23° NNW 18:29:56 10° NNW
Cosmos 2219 Rocket 4.4 18:22:55 10° WNW 18:26:29 17° NW 18:28:40 14° N
S3M 4.2 18:21:29 10° NNW 18:27:13 66° WNW 18:27:13 66° WNW
ATLAS 2AS CENTAUR R/B 4.3 18:22:26 10° WNW 18:29:07 28° NNW 18:30:48 26° N
Cosmos 1943 Rocket 3.8 18:36:51 10° NNW 18:39:24 28° NNW 18:39:24 28° NNW
USA 215 4.1 18:46:59 39° NNW 18:46:59 39° NNW 18:52:02 10° WNW
